[[{"header":{"parameterUnit":"m.s-1","parameterCategory":1,"la1":30.2991,"la2":30.254,"lo1":-89.0895,"lo2":-89.0444,"dy":0.0017,"dx":0.0017,"nx":28,"ny":28,"refTime":"2023-09-09T03:00:00:Z","depth":0,"parameterNumber":2,"parameterNumberName":"U-component_of_WINDS"},"data":[0,0,0,0,0,0,0,0,0,0,0,0,0,0,0,0,0,0,0,0,0,0,0,0,0,0,0,0,0,0,0,0,0,0,0,0,0,0,0,0,0,0,0,0,0,0,0,0,0,0,0,0,0,0,0,0,0,0,-1.8939,-1.8938,0,-1.8842,-1.8841,-1.884,-1.8696,-1.8693,-1.8691,-1.8688,-1.8593,-1.8593,-1.8593,0,0,0,0,0,0,0,0,0,0,0,0,0,-1.9,-1.9,-1.8939,-1.8938,-1.8936,-1.8843,-1.8841,-1.884,-1.8696,-1.8693,-1.869,-1.8687,-1.8594,-1.8593,-1.8593,0,0,0,0,0,0,0,0,0,0,0,0,0,-1.8946,-1.9,-1.8939,-1.8853,-1.8844,-1.8843,-1.8841,-1.884,-1.8697,-1.8693,-1.8689,-1.8685,-1.8594,-1.8593,-1.8593,-1.8669,0,0,-1.8593,-1.8593,0,0,0,0,0,0,0,0,-1.8949,-1.8944,-1.8867,-1.8859,-1.8849,-1.8777,-1.8828,-1.8783,-1.8698,-1.8753,-1.8688,-1.8684,-1.8658,-1.8652,-1.8643,-1.8665,-1.866,-1.8593,-1.8592,-1.8592,-1.8592,0,0,0,0,0,0,0,-1.8953,-1.8947,-1.8901,-1.8866,-1.8855,-1.882,-1.8808,-1.8819,-1.8728,-1.8748,-1.8737,-1.8728,-1.8652,-1.8643,-1.8639,-1.8659,-1.8593,-1.8592,-1.8592,-1.8592,-1.8735,-1.8739,0,0,0,0,0,0,-1.8969,-1.8951,-1.8904,-1.8898,-1.8891,-1.8822,-1.8809,-1.8804,-1.8728,-1.8712,-1.8731,-1.8721,-1.8645,-1.864,-1.8636,-1.8716,-1.8592,-1.8592,-1.8592,-1.8731,-1.8736,-1.874,0,0,0,0,0,0,-1.8971,-1.8966,-1.8908,-1.8921,-1.8911,-1.8825,-1.8821,-1.8804,-1.8795,-1.8715,-1.8698,-1.8738,-1.8642,-1.8636,-1.8661,-1.8711,-1.8592,-1.8592,-1.8727,-1.8733,-1.8738,-1.8881,0,0,0,0,0,0,-1.8973,-1.8968,-1.8995,-1.8923,-1.8911,-1.8934,-1.8824,-1.8805,-1.8794,-1.8781,-1.8717,-1.8703,-1.8639,-1.8662,-1.8661,-1.8709,-1.8592,-1.8722,-1.873,-1.8736,-1.8872,-1.8891,-1.8908,0,0,0,0,0,-1.8976,-1.9041,-1.8997,-1.8992,-1.8943,-1.8937,-1.8931,-1.8854,-1.8799,-1.8826,-1.8774,-1.8705,-1.8707,-1.8666,-1.8663,-1.8712,-1.8718,-1.8727,-1.8736,-1.8864,-1.8888,-1.8908,0,0,0,0,0,0,-1.9123,-1.903,-1.8981,-1.9024,-1.8989,-1.8913,-1.8944,-1.8883,-1.8864,-1.8852,-1.876,-1.8746,-1.8783,-1.875,-1.8706,-1.878,-1.8702,-1.8711,-1.88,-1.8822,-1.884,-1.8846,-1.8592,0,0,0,0,0,-1.916,-1.9162,-1.9081,-1.9127,-1.9112,-1.9032,-1.9026,-1.897,-1.8931,-1.8917,-1.8867,-1.8833,-1.8825,-1.8822,-1.8811,-1.8867,-1.885,-1.8899,-1.8918,-1.8933,-1.8941,-1.8966,-1.8986,-1.8769,-1.8769,-1.8769,0,0,-1.9237,-1.9186,-1.9194,-1.9155,-1.9122,-1.9126,-1.9021,-1.903,-1.9032,-1.8918,-1.8937,-1.89,-1.8856,-1.8896,-1.8912,-1.887,-1.8997,-1.8944,-1.8957,-1.8957,-1.8977,-1.8998,-1.9016,-1.8775,-1.8774,-1.8773,0,0,-1.9379,-1.9342,-1.9374,-1.9343,-1.9293,-1.9239,-1.9247,-1.918,-1.915,-1.9168,-1.9082,-1.9084,-1.9073,-1.9044,-1.9028,-1.9158,-1.9093,-1.9158,-1.9252,-1.9277,-1.9294,-1.9309,-1.9353,-1.937,-1.9166,-1.9167,-1.9167,0,-1.9481,-1.9483,-1.94,-1.9413,-1.9398,-1.9294,-1.9326,-1.93,-1.9251,-1.9243,-1.9197,-1.918,-1.9143,-1.9174,-1.9205,-1.9197,-1.9202,-1.9163,-1.9299,-1.9312,-1.9325,-1.9365,-1.9383,-1.9175,-1.9174,-1.9173,-1.9172,0,-1.961,-1.9613,-1.9645,-1.9597,-1.9586,-1.961,-1.953,-1.9529,-1.9474,-1.9425,-1.9444,-1.9396,-1.9372,-1.9376,-1.9324,-1.9399,-1.9374,-1.9316,-1.9234,-1.9355,-1.9391,-1.9406,-1.9186,-1.9183,-1.9181,-1.9179,0,0,-1.984,-1.9745,-1.9758,-1.9734,-1.9671,-1.9672,-1.9691,-1.9666,-1.9666,-1.9635,-1.9647,-1.964,-1.9584,-1.9567,-1.951,-1.9533,-1.9635,-1.947,-1.9468,-1.95,-1.9712,-1.9755,-1.9774,-1.9593,-1.9595,-1.9597,-1.9715,0,-1.9967,-1.9991,-1.9917,-1.9961,-1.9961,-1.9862,-1.9878,-1.9842,-1.9797,-1.9791,-1.9741,-1.9736,-1.9665,-1.9653,-1.9671,-1.9619,-1.9676,-1.961,-1.9602,-1.9603,-1.9613,-1.9794,-1.9839,-1.9953,-1.9729,-1.9732,-1.9733,0,-2.0118,-2.0093,-2.0137,-2.0069,-2.0067,-2.0082,-2.0052,-2.0049,-2.0005,-1.9971,-1.995,-1.9884,-1.9897,-1.9821,-1.9837,-1.9794,-1.9786,-1.9761,-1.9763,-1.9757,-1.9673,-1.979,-1.9987,-2.0003,-1.9756,-1.9754,-1.9752,0,-2.0278,-2.0256,-2.0278,-2.0261,-2.0184,-2.0197,-2.0166,-2.0118,-2.0108,-2.0082,-2.0074,-2.0052,-2.0039,-2.0023,-1.9952,-1.9904,-1.9976,-1.9895,-1.9946,-1.9948,-1.9964,-1.9963,-2.0159,-1.9965,-1.9964,-1.9964,-1.9964,0,-2.0426,-2.0456,-2.0348,-2.0362,-2.0392,-2.0306,-2.0339,-2.0298,-2.0257,-2.026,-2.0175,-2.018,-2.0088,-2.0083,-2.0028,-2.0048,-2.0044,-2.0016,-2.0,-2.0022,-2.0025,-2.0013,-2.0003,-1.9968,-1.9967,-1.9967,-1.9966,0,-2.0609,-2.0538,-2.0555,-2.0481,-2.0463,-2.0488,-2.0424,-2.0433,-2.0383,-2.0389,-2.0385,-2.0306,-2.0296,-2.0224,-2.0199,-2.0162,-2.0201,-2.0172,-2.0215,-2.0204,-2.0259,-2.0254,-2.0452,-2.0473,-2.0269,-2.0271,-2.0272,0,-2.0706,-2.0726,-2.0654,-2.0649,-2.0621,-2.0616,-2.0604,-2.0521,-2.0512,-2.0463,-2.0478,-2.0461,-2.0442,-2.0431,-2.0371,-2.0351,-2.0318,-2.0389,-2.0314,-2.0334,-2.0315,-2.0314,-2.0314,-2.0404,-2.0407,-2.0409,-2.0411,0,-2.0886,-2.0849,-2.0834,-2.0808,-2.0795,-2.077,-2.074,-2.0742,-2.065,-2.0645,-2.0632,-2.0618,-2.059,-2.0573,-2.0542,-2.051,-2.0445,-2.0435,-2.0445,-2.0466,-2.0489,-2.0474,-2.0255,-2.0431,-2.0429,-2.0427,-2.0426,-2.0425,-2.1026,-2.1038,-2.0988,-2.0974,-2.0943,-2.0916,-2.092,-2.087,-2.0858,-2.0828,-2.0781,-2.0774,-2.0729,-2.068,-2.0654,-2.0648,-2.061,-2.0626,-2.0629,-2.0633,-2.0643,-2.0493,-2.0642,-2.0642,-2.0641,-2.0641,-2.064,0,-2.1197,-2.116,-2.1149,-2.1108,-2.1097,-2.1037,-2.1,-2.0995,-2.099,-2.0954,-2.0936,-2.0921,-2.0905,-2.0844,-2.082,-2.0827,-2.0796,-2.0823,-2.082,-2.0813,-2.068,-2.0672,-2.0848,-2.0848,-2.0848,-2.0848,-2.0848,-2.0848,-2.1285,-2.1302,-2.126,-2.126,-2.1222,-2.1215,-2.1199,-2.1174,-2.1143,-2.113,-2.1115,-2.1075,-2.1028,-2.1001,-2.0982,-2.0965,-2.0959,-2.0995,-2.0968,-2.0843,-2.0823,-2.0804,-2.0796,-2.0995,-2.0996,-2.11,-2.1102,-2.1102]},{"header":{"parameterUnit":"m.s-1","parameterCategory":1,"la1":30.2991,"la2":30.254,"lo1":-89.0895,"lo2":-89.0444,"dy":0.0017,"dx":0.0017,"nx":28,"ny":28,"refTime":"2023-09-09T03:00:00:Z","depth":0,"parameterNumber":3,"parameterNumberName":"V-component_of_WINDS"},"data":[0,0,0,0,0,0,0,0,0,0,0,0,0,0,0,0,0,0,0,0,0,0,0,0,0,0,0,0,0,0,0,0,0,0,0,0,0,0,0,0,0,0,0,0,0,0,0,0,0,0,0,0,0,0,0,0,0,0,-2.6924,-2.6925,0,-2.7002,-2.7003,-2.7004,-2.6986,-2.6985,-2.6983,-2.6982,-2.7057,-2.706,-2.7064,0,0,0,0,0,0,0,0,0,0,0,0,0,-2.6753,-2.6757,-2.6924,-2.6925,-2.6926,-2.7002,-2.7003,-2.7004,-2.6986,-2.6985,-2.6983,-2.6981,-2.7056,-2.706,-2.7064,0,0,0,0,0,0,0,0,0,0,0,0,0,-2.6829,-2.6758,-2.6924,-2.6926,-2.6927,-2.7002,-2.7003,-2.7004,-2.6987,-2.6984,-2.6982,-2.698,-2.7055,-2.7059,-2.7064,-2.714,0,0,-2.708,-2.7082,0,0,0,0,0,0,0,0,-2.6825,-2.6835,-2.6925,-2.6926,-2.6927,-2.6982,-2.697,-2.705,-2.6987,-2.6964,-2.6982,-2.6979,-2.7034,-2.704,-2.706,-2.7143,-2.7146,-2.708,-2.7083,-2.7086,-2.7087,0,0,0,0,0,0,0,-2.682,-2.6832,-2.6955,-2.6926,-2.6928,-2.6922,-2.693,-2.6985,-2.701,-2.6966,-2.6965,-2.6975,-2.7034,-2.7055,-2.7061,-2.7148,-2.708,-2.7085,-2.7088,-2.709,-2.7295,-2.7297,0,0,0,0,0,0,-2.6814,-2.6828,-2.6952,-2.6957,-2.687,-2.6926,-2.6936,-2.6967,-2.7009,-2.7014,-2.6976,-2.6973,-2.7047,-2.7055,-2.7064,-2.7153,-2.7086,-2.709,-2.7093,-2.7292,-2.7295,-2.7298,0,0,0,0,0,0,-2.681,-2.6825,-2.6949,-2.6892,-2.6907,-2.6932,-2.6967,-2.6969,-2.699,-2.7017,-2.7021,-2.6994,-2.7046,-2.7057,-2.7121,-2.7156,-2.7093,-2.7097,-2.729,-2.7293,-2.7297,-2.7334,0,0,0,0,0,0,-2.6806,-2.6824,-2.6854,-2.6893,-2.691,-2.7007,-2.6969,-2.6973,-2.7,-2.6997,-2.7035,-2.7039,-2.7045,-2.7113,-2.7126,-2.7162,-2.7101,-2.7286,-2.7291,-2.7295,-2.733,-2.7338,-2.7346,0,0,0,0,0,-2.68,-2.6861,-2.6856,-2.6871,-2.6949,-2.7009,-2.7018,-2.7026,-2.7003,-2.7032,-2.7049,-2.7037,-2.715,-2.712,-2.7134,-2.7172,-2.7284,-2.729,-2.7295,-2.7326,-2.7337,-2.7346,0,0,0,0,0,0,-2.6824,-2.6866,-2.6861,-2.6937,-2.697,-2.7006,-2.7043,-2.7037,-2.7076,-2.7071,-2.7077,-2.7085,-2.7151,-2.7168,-2.7134,-2.7246,-2.7214,-2.7222,-2.7232,-2.7243,-2.7251,-2.7244,-2.7105,0,0,0,0,0,-2.6839,-2.6886,-2.6919,-2.6983,-2.6999,-2.7019,-2.7045,-2.7048,-2.7081,-2.7094,-2.7116,-2.7147,-2.7189,-2.7217,-2.7258,-2.7332,-2.7339,-2.7365,-2.7373,-2.7379,-2.7386,-2.7425,-2.7436,-2.7316,-2.7316,-2.7316,0,0,-2.6869,-2.6897,-2.6926,-2.6988,-2.7014,-2.706,-2.703,-2.7081,-2.7114,-2.7101,-2.7163,-2.718,-2.7215,-2.7285,-2.7316,-2.7301,-2.7421,-2.7386,-2.7391,-2.7395,-2.7432,-2.7443,-2.7453,-2.7319,-2.7319,-2.7318,0,0,-2.6947,-2.6974,-2.703,-2.7056,-2.7096,-2.7108,-2.7121,-2.7158,-2.7169,-2.7232,-2.7223,-2.7262,-2.7336,-2.736,-2.7383,-2.747,-2.7459,-2.7483,-2.7524,-2.7562,-2.7572,-2.758,-2.7609,-2.762,-2.749,-2.749,-2.749,0,-2.6978,-2.705,-2.7058,-2.711,-2.7137,-2.7128,-2.7183,-2.7208,-2.7258,-2.7276,-2.7258,-2.7349,-2.7372,-2.7447,-2.7468,-2.7487,-2.75,-2.7478,-2.757,-2.7578,-2.7586,-2.7614,-2.7625,-2.7492,-2.7492,-2.7492,-2.7491,0,-2.7086,-2.7135,-2.7175,-2.7225,-2.7256,-2.7309,-2.7324,-2.7354,-2.7354,-2.7368,-2.7431,-2.7458,-2.7503,-2.7521,-2.7522,-2.7595,-2.7584,-2.7569,-2.7536,-2.76,-2.7626,-2.7637,-2.7496,-2.7495,-2.7494,-2.7493,0,0,-2.7181,-2.7236,-2.725,-2.7272,-2.7315,-2.7352,-2.7404,-2.745,-2.7474,-2.7509,-2.7551,-2.7613,-2.7598,-2.7624,-2.7626,-2.766,-2.7725,-2.7639,-2.764,-2.7653,-2.7806,-2.7816,-2.7829,-2.7719,-2.7721,-2.7723,-2.7802,0,-2.7262,-2.7355,-2.7364,-2.7447,-2.7491,-2.7484,-2.7528,-2.7558,-2.7572,-2.761,-2.7625,-2.7668,-2.7646,-2.7661,-2.7694,-2.771,-2.7755,-2.7705,-2.7756,-2.7758,-2.7746,-2.7843,-2.7855,-2.7928,-2.7813,-2.7814,-2.7816,0,-2.7369,-2.7408,-2.7495,-2.7531,-2.755,-2.759,-2.7632,-2.767,-2.7702,-2.771,-2.7738,-2.7736,-2.7787,-2.7754,-2.7823,-2.7788,-2.781,-2.7821,-2.7824,-2.7827,-2.779,-2.7848,-2.7952,-2.7963,-2.7832,-2.7831,-2.783,0,-2.7427,-2.7502,-2.7563,-2.7583,-2.7626,-2.7654,-2.7674,-2.7705,-2.7731,-2.7767,-2.7784,-2.7825,-2.7847,-2.7878,-2.7887,-2.7862,-2.7955,-2.7923,-2.7961,-2.7961,-2.798,-2.7978,-2.8088,-2.7996,-2.7996,-2.7996,-2.7996,0,-2.7516,-2.7569,-2.759,-2.7628,-2.7687,-2.7696,-2.7753,-2.777,-2.7798,-2.7837,-2.7833,-2.787,-2.7879,-2.7917,-2.7924,-2.7979,-2.7989,-2.7995,-2.7996,-2.7995,-2.7994,-2.8008,-2.8002,-2.7999,-2.7998,-2.7998,-2.7997,0,-2.7591,-2.7608,-2.7674,-2.771,-2.772,-2.7762,-2.7792,-2.7827,-2.784,-2.789,-2.7902,-2.7922,-2.7966,-2.7978,-2.8031,-2.8035,-2.8099,-2.8096,-2.8089,-2.8088,-2.8125,-2.8121,-2.8246,-2.8262,-2.8162,-2.8163,-2.8163,0,-2.7646,-2.7687,-2.7727,-2.7754,-2.7775,-2.7818,-2.7846,-2.7856,-2.7884,-2.7924,-2.7954,-2.7998,-2.8034,-2.8104,-2.8122,-2.8162,-2.8159,-2.82,-2.8164,-2.8161,-2.8157,-2.8154,-2.8157,-2.8206,-2.8207,-2.8208,-2.8209,0,-2.774,-2.7746,-2.7787,-2.783,-2.7863,-2.7898,-2.793,-2.7952,-2.7966,-2.7998,-2.8044,-2.8071,-2.8126,-2.8168,-2.8209,-2.8226,-2.8219,-2.822,-2.823,-2.8229,-2.8222,-2.8224,-2.8105,-2.8217,-2.8216,-2.8215,-2.8215,-2.8214,-2.7806,-2.7841,-2.7875,-2.792,-2.7946,-2.7977,-2.8011,-2.8029,-2.8068,-2.8114,-2.8117,-2.8166,-2.8197,-2.825,-2.827,-2.8307,-2.8295,-2.831,-2.8314,-2.8317,-2.832,-2.8218,-2.8315,-2.8314,-2.8314,-2.8314,-2.8314,0,-2.7898,-2.792,-2.7962,-2.8008,-2.8043,-2.8036,-2.8071,-2.81,-2.8144,-2.8174,-2.8209,-2.8261,-2.8302,-2.8324,-2.8365,-2.839,-2.8388,-2.84,-2.8397,-2.8401,-2.833,-2.8316,-2.8401,-2.8401,-2.8401,-2.8401,-2.8401,-2.8401,-2.7951,-2.801,-2.802,-2.8091,-2.8112,-2.8162,-2.8182,-2.821,-2.8234,-2.8292,-2.8327,-2.8342,-2.8368,-2.841,-2.8447,-2.8452,-2.8466,-2.848,-2.8483,-2.8415,-2.8407,-2.8398,-2.8385,-2.8484,-2.8484,-2.8552,-2.8552,-2.8553]}]]